Location: Bad Salzschlirf
(50.3750°N, 9.3000°E)
Time: 02:59:46
(UTC+02:00)

ISS - Pass Details

Date: 08 July 2025
Orbit: 413 x 417 km, 51.6° (Epoch: 12 July)

Event Time Altitude Azimuth Distance (km) Brightness Sun altitude
Rises 22:47:04 0° 222° (SW) 2,341 -0.1 -9.0°
Reaches altitude 10° 22:49:17 10° 212° (SSW) 1,483 -1.2 -9.3°
Maximum altitude 22:52:16 31° 148° (SSE) 746 -3.0 -9.5°
Drops below altitude 10° 22:55:17 10° 84° (E) 1,492 -1.2 -9.8°
Sets 22:57:31 0° 74° (ENE) 2,358 -0.1 -10.0°
